[[{"header":{"parameterUnit":"m.s-1","parameterCategory":1,"la1":30.2991,"la2":30.254,"lo1":-89.0895,"lo2":-89.0444,"dy":0.0017,"dx":0.0017,"nx":28,"ny":28,"refTime":"2023-08-23T09:00:00:Z","depth":0,"parameterNumber":2,"parameterNumberName":"U-component_of_WINDS"},"data":[0,0,0,0,0,0,0,0,0,0,0,0,0,0,0,0,0,0,0,0,0,0,0,0,0,0,0,0,0,0,0,0,0,0,0,0,0,0,0,0,0,0,0,0,0,0,0,0,0,0,0,0,0,0,0,0,0,0,0.0156,0.0157,0,0.0246,0.0247,0.0248,0.0267,0.0266,0.0265,0.0265,0.0358,0.0361,0.0364,0,0,0,0,0,0,0,0,0,0,0,0,0,0.0002,0.0005,0.0156,0.0157,0.0158,0.0246,0.0247,0.0248,0.0267,0.0266,0.0265,0.0264,0.0357,0.0361,0.0364,0,0,0,0,0,0,0,0,0,0,0,0,0,0.0078,0.0006,0.0156,0.0178,0.0181,0.0246,0.0247,0.0249,0.0267,0.0266,0.0265,0.0264,0.0356,0.036,0.0365,0.0414,0,0,0.0379,0.0381,0,0,0,0,0,0,0,0,0.0074,0.0084,0.0174,0.0177,0.018,0.0244,0.0227,0.0304,0.0267,0.0234,0.0265,0.0264,0.0321,0.0328,0.0348,0.0418,0.0422,0.0379,0.0382,0.0384,0.0386,0,0,0,0,0,0,0,0.0069,0.008,0.0192,0.0175,0.0179,0.0184,0.0194,0.0242,0.0282,0.0237,0.0239,0.0249,0.0323,0.0343,0.035,0.0424,0.0379,0.0384,0.0386,0.0388,0.0539,0.054,0,0,0,0,0,0,0.0059,0.0076,0.0189,0.0194,0.0123,0.0188,0.0199,0.0225,0.0282,0.029,0.025,0.025,0.0336,0.0344,0.0353,0.0414,0.0384,0.0389,0.0391,0.0537,0.0539,0.054,0,0,0,0,0,0,0.0056,0.0069,0.0185,0.0135,0.0151,0.0191,0.0221,0.0227,0.0247,0.0291,0.0299,0.0263,0.0335,0.0347,0.0398,0.0418,0.0391,0.0395,0.0536,0.0538,0.054,0.0537,0,0,0,0,0,0,0.0051,0.0068,0.0087,0.0136,0.0153,0.0229,0.0222,0.0229,0.0255,0.0256,0.0306,0.0313,0.0335,0.0391,0.0403,0.0424,0.0399,0.0535,0.0537,0.0539,0.0535,0.0538,0.054,0,0,0,0,0,0.0046,0.0082,0.0087,0.0101,0.0177,0.023,0.024,0.0264,0.0257,0.0276,0.0304,0.0312,0.0414,0.0397,0.041,0.0432,0.0533,0.0536,0.0539,0.0534,0.0537,0.054,0,0,0,0,0,0,0.0035,0.0089,0.0095,0.0149,0.0185,0.0233,0.0258,0.0267,0.0306,0.0305,0.0333,0.0344,0.0395,0.0419,0.0399,0.0482,0.0473,0.0479,0.0465,0.0469,0.0471,0.0464,0.0403,0,0,0,0,0,0.0039,0.0076,0.0122,0.0165,0.0182,0.0217,0.0241,0.0256,0.0294,0.031,0.0342,0.0379,0.0419,0.0445,0.0485,0.0539,0.055,0.056,0.0563,0.0565,0.0569,0.0599,0.0605,0.0549,0.0549,0.0549,0,0,0.0047,0.0082,0.0104,0.0164,0.0193,0.0232,0.023,0.0271,0.03,0.0316,0.0367,0.0392,0.0435,0.0488,0.0513,0.0509,0.0587,0.0568,0.057,0.0573,0.0603,0.0608,0.0612,0.0551,0.0551,0.055,0,0,0.0083,0.0112,0.0151,0.018,0.0225,0.0247,0.0257,0.0304,0.0321,0.0372,0.0385,0.042,0.0489,0.0519,0.0543,0.0589,0.0597,0.0601,0.0616,0.0644,0.0649,0.0653,0.0669,0.0674,0.0606,0.0606,0.0606,0,0.0088,0.0146,0.017,0.0211,0.0236,0.0253,0.0292,0.032,0.0375,0.0392,0.0388,0.0474,0.0505,0.0565,0.0576,0.0595,0.0607,0.0596,0.0646,0.065,0.0654,0.067,0.0676,0.0606,0.0606,0.0606,0.0606,0,0.015,0.019,0.0216,0.0268,0.0297,0.0337,0.0368,0.0394,0.0407,0.043,0.0482,0.0519,0.0566,0.0581,0.0595,0.0643,0.064,0.064,0.0632,0.0659,0.0675,0.0681,0.0606,0.0606,0.0606,0.0606,0,0,0.0181,0.0246,0.0255,0.0279,0.0329,0.036,0.0401,0.0447,0.0469,0.0506,0.0541,0.0598,0.0599,0.0626,0.0643,0.0668,0.0702,0.0666,0.0667,0.0671,0.0758,0.0757,0.0763,0.0708,0.0709,0.071,0.0754,0,0.0222,0.0295,0.0318,0.0378,0.0416,0.0431,0.0467,0.0501,0.0524,0.0559,0.0584,0.0625,0.0622,0.0639,0.0665,0.0692,0.072,0.069,0.074,0.0742,0.0729,0.0772,0.0771,0.0811,0.076,0.0761,0.0762,0,0.028,0.0318,0.0382,0.0426,0.0443,0.0474,0.0518,0.0551,0.0591,0.0605,0.0636,0.065,0.0693,0.0682,0.0741,0.072,0.0742,0.0759,0.0761,0.0767,0.0753,0.0778,0.0824,0.083,0.0772,0.0771,0.077,0,0.0296,0.0363,0.041,0.043,0.0483,0.0505,0.0528,0.0566,0.0592,0.063,0.0647,0.069,0.0713,0.0746,0.0772,0.0761,0.0829,0.082,0.0842,0.0841,0.0856,0.0855,0.0906,0.087,0.087,0.087,0.087,0,0.034,0.0378,0.0418,0.0447,0.049,0.0516,0.0559,0.0583,0.0617,0.0651,0.0667,0.0699,0.0731,0.0766,0.0787,0.0833,0.0843,0.0856,0.0861,0.0855,0.0853,0.087,0.0867,0.0871,0.0871,0.0871,0.0871,0,0.0365,0.0393,0.0445,0.0491,0.0504,0.0534,0.0574,0.0602,0.0625,0.0668,0.068,0.0716,0.0759,0.0787,0.0842,0.0856,0.0906,0.091,0.0892,0.0895,0.0916,0.0913,0.0979,0.0989,0.0947,0.0947,0.0947,0,0.0391,0.0421,0.047,0.0494,0.0517,0.0555,0.0581,0.0608,0.0635,0.0681,0.0704,0.0748,0.0785,0.0852,0.0884,0.0926,0.0931,0.0951,0.0938,0.093,0.0931,0.0929,0.0932,0.0953,0.0954,0.0954,0.0954,0,0.0434,0.0446,0.0483,0.0525,0.0556,0.059,0.0625,0.0643,0.0676,0.0705,0.0749,0.0777,0.0833,0.0876,0.0921,0.0945,0.0955,0.0958,0.0966,0.0959,0.0948,0.0954,0.0898,0.0957,0.0956,0.0956,0.0956,0.0956,0.0461,0.0488,0.0526,0.0567,0.0595,0.0627,0.0656,0.0683,0.072,0.0767,0.078,0.0826,0.0864,0.0925,0.095,0.0986,0.0984,0.0995,0.0997,0.0999,0.0999,0.0942,0.0994,0.0994,0.0994,0.0994,0.0994,0,0.0504,0.0529,0.0566,0.0614,0.0646,0.0652,0.0691,0.0717,0.0757,0.0791,0.0827,0.0877,0.0918,0.0953,0.0996,0.1018,0.1024,0.1028,0.1027,0.1032,0.0999,0.0988,0.1023,0.1023,0.1023,0.1023,0.1023,0.1023,0.053,0.0576,0.0593,0.0654,0.0679,0.0723,0.0745,0.0774,0.0802,0.0857,0.0891,0.0914,0.0948,0.0994,0.1032,0.1041,0.1056,0.106,0.107,0.1038,0.1035,0.1032,0.1022,0.1063,0.1063,0.11,0.1101,0.1101]},{"header":{"parameterUnit":"m.s-1","parameterCategory":1,"la1":30.2991,"la2":30.254,"lo1":-89.0895,"lo2":-89.0444,"dy":0.0017,"dx":0.0017,"nx":28,"ny":28,"refTime":"2023-08-23T09:00:00:Z","depth":0,"parameterNumber":3,"parameterNumberName":"V-component_of_WINDS"},"data":[0,0,0,0,0,0,0,0,0,0,0,0,0,0,0,0,0,0,0,0,0,0,0,0,0,0,0,0,0,0,0,0,0,0,0,0,0,0,0,0,0,0,0,0,0,0,0,0,0,0,0,0,0,0,0,0,0,0,0.5463,0.5464,0,0.549,0.549,0.549,0.5488,0.5487,0.5487,0.5486,0.5512,0.5513,0.5514,0,0,0,0,0,0,0,0,0,0,0,0,0,0.5406,0.5407,0.5463,0.5464,0.5464,0.549,0.549,0.549,0.5488,0.5487,0.5487,0.5486,0.5512,0.5513,0.5514,0,0,0,0,0,0,0,0,0,0,0,0,0,0.5432,0.5408,0.5463,0.5466,0.5466,0.549,0.549,0.5491,0.5488,0.5487,0.5487,0.5486,0.5511,0.5513,0.5514,0.5537,0,0,0.5519,0.552,0,0,0,0,0,0,0,0,0.543,0.5434,0.5465,0.5466,0.5466,0.5485,0.5479,0.5506,0.5488,0.548,0.5486,0.5486,0.5503,0.5506,0.5512,0.5538,0.5539,0.5519,0.552,0.5521,0.5521,0,0,0,0,0,0,0,0.5429,0.5433,0.5474,0.5465,0.5466,0.5464,0.5467,0.5484,0.5495,0.548,0.548,0.5483,0.5504,0.551,0.5512,0.5539,0.5519,0.5521,0.5522,0.5522,0.558,0.558,0,0,0,0,0,0,0.5427,0.5431,0.5473,0.5475,0.5446,0.5466,0.5469,0.5479,0.5494,0.5496,0.5484,0.5483,0.5508,0.5511,0.5513,0.5537,0.5521,0.5523,0.5523,0.5579,0.558,0.5581,0,0,0,0,0,0,0.5425,0.543,0.5472,0.5453,0.5458,0.5467,0.5479,0.548,0.5487,0.5497,0.5499,0.5489,0.5507,0.5511,0.553,0.5538,0.5523,0.5525,0.5579,0.5579,0.558,0.5587,0,0,0,0,0,0,0.5424,0.543,0.544,0.5453,0.5459,0.5489,0.548,0.5481,0.549,0.5489,0.5502,0.5504,0.5507,0.5527,0.5531,0.554,0.5526,0.5578,0.5579,0.558,0.5586,0.5588,0.559,0,0,0,0,0,0.5422,0.5441,0.544,0.5445,0.5472,0.549,0.5493,0.5497,0.5491,0.55,0.5505,0.5504,0.5537,0.5529,0.5534,0.5543,0.5577,0.5579,0.558,0.5586,0.5588,0.559,0,0,0,0,0,0,0.543,0.5443,0.5442,0.5467,0.5477,0.5489,0.5501,0.55,0.5512,0.5511,0.5514,0.5517,0.5535,0.5541,0.5533,0.5563,0.5556,0.5558,0.5559,0.5561,0.5563,0.5561,0.5527,0,0,0,0,0,0.5434,0.5449,0.546,0.548,0.5485,0.5492,0.55,0.5502,0.5513,0.5517,0.5524,0.5534,0.5546,0.5554,0.5566,0.5587,0.5588,0.5595,0.5597,0.5599,0.56,0.5608,0.5611,0.5585,0.5585,0.5585,0,0,0.5444,0.5453,0.5462,0.5482,0.549,0.5503,0.5496,0.5511,0.552,0.5519,0.5537,0.5542,0.5553,0.5572,0.558,0.5577,0.5607,0.56,0.5601,0.5602,0.561,0.5612,0.5614,0.5586,0.5585,0.5585,0,0,0.5468,0.5477,0.5494,0.5501,0.5513,0.5517,0.5521,0.5532,0.5535,0.5553,0.5551,0.5561,0.5584,0.559,0.5596,0.5618,0.5616,0.5622,0.5631,0.5639,0.5641,0.5642,0.5648,0.565,0.5623,0.5623,0.5623,0,0.5478,0.5499,0.5502,0.5517,0.5524,0.5522,0.5537,0.5544,0.556,0.5564,0.556,0.5585,0.5592,0.5611,0.5616,0.5622,0.5624,0.562,0.564,0.5642,0.5644,0.5649,0.5651,0.5624,0.5624,0.5624,0.5624,0,0.5509,0.5523,0.5535,0.5548,0.5557,0.5572,0.5576,0.5584,0.5584,0.5587,0.5603,0.5611,0.5623,0.5628,0.5629,0.5646,0.5643,0.564,0.5632,0.5647,0.5651,0.5654,0.5625,0.5624,0.5624,0.5624,0,0,0.5541,0.5553,0.5557,0.5562,0.5573,0.5583,0.5596,0.5608,0.5613,0.5623,0.5632,0.5649,0.5645,0.5652,0.5653,0.566,0.5673,0.5655,0.5655,0.5656,0.5689,0.569,0.5693,0.5671,0.5672,0.5672,0.5687,0,0.5564,0.5587,0.5589,0.561,0.5621,0.5618,0.5629,0.5636,0.5639,0.5647,0.565,0.5661,0.5656,0.566,0.5667,0.567,0.5679,0.5669,0.5679,0.5679,0.5675,0.5696,0.5698,0.5712,0.5689,0.569,0.569,0,0.5594,0.5603,0.5625,0.5631,0.5636,0.5646,0.5654,0.5664,0.567,0.5671,0.5677,0.5677,0.5688,0.568,0.5694,0.5687,0.5691,0.5692,0.5693,0.5693,0.5685,0.5695,0.5717,0.5719,0.5693,0.5693,0.5693,0,0.5611,0.5629,0.5643,0.5647,0.5656,0.5662,0.5666,0.5672,0.5678,0.5685,0.5688,0.5697,0.5701,0.5707,0.5707,0.5702,0.572,0.5713,0.572,0.572,0.5724,0.5723,0.5745,0.5728,0.5728,0.5728,0.5728,0,0.5636,0.5649,0.565,0.5659,0.5672,0.5673,0.5686,0.5689,0.5693,0.5701,0.5699,0.5707,0.5708,0.5714,0.5715,0.5725,0.5727,0.5727,0.5727,0.5727,0.5726,0.5729,0.5727,0.5729,0.5729,0.5729,0.5728,0,0.5657,0.5659,0.5674,0.568,0.5681,0.5691,0.5695,0.5702,0.5704,0.5713,0.5716,0.5718,0.5726,0.5727,0.5736,0.5736,0.5748,0.5747,0.5745,0.5745,0.5751,0.5749,0.5774,0.5776,0.5759,0.5759,0.5759,0,0.5672,0.5681,0.5687,0.5692,0.5696,0.5704,0.5709,0.5709,0.5714,0.5721,0.5727,0.5734,0.574,0.5752,0.5754,0.576,0.5759,0.5767,0.576,0.5758,0.5757,0.5756,0.5755,0.5768,0.5768,0.5768,0.5768,0,0.5697,0.5697,0.5704,0.5711,0.5717,0.5723,0.5728,0.5732,0.5732,0.5738,0.5745,0.575,0.5758,0.5765,0.577,0.5773,0.577,0.577,0.5772,0.5771,0.5769,0.5769,0.5747,0.577,0.577,0.577,0.577,0.5769,0.5714,0.5721,0.5725,0.5733,0.5736,0.5741,0.5747,0.5748,0.5755,0.5761,0.5761,0.5769,0.5772,0.5779,0.5782,0.5787,0.5784,0.5787,0.5787,0.5788,0.5787,0.5769,0.5788,0.5788,0.5788,0.5788,0.5788,0,0.5737,0.5739,0.5746,0.5752,0.5758,0.5754,0.5759,0.5763,0.577,0.5774,0.5779,0.5786,0.5792,0.5793,0.5798,0.5802,0.58,0.5803,0.5802,0.5802,0.579,0.5788,0.5804,0.5804,0.5804,0.5804,0.5804,0.5804,0.5749,0.576,0.576,0.5771,0.5773,0.578,0.5783,0.5786,0.5788,0.5796,0.5801,0.5802,0.5804,0.5808,0.5813,0.5813,0.5814,0.5817,0.5816,0.5805,0.5803,0.5802,0.5799,0.5817,0.5817,0.5828,0.5828,0.5828]}]]